CW7014 Weather Reports


time (UTC)temp
F
wind
direction
speed
knots
gust
knots
rain 1hr
in
rain 24hr
in
rain mn
in
humidity
%
barometer
mb
20260504205002 75 99 0.9 3.5 0.00 0.00 0.00 72 1006.0
20260504204503 75 145 1.7 6.1 0.00 0.00 0.00 73 1006.1
20260504204001 74 181 1.7 6.1 0.00 0.00 0.00 75 1006.2
20260504203002 73 118 1.7 6.1 0.00 0.00 0.00 80 1006.3
20260504201503 69 249 1.7 7.0 0.00 0.00 0.00 89 1006.2
20260504201000 67 117 1.7 7.0 0.00 0.00 0.00 91 1006.3
20260504200501 66 152 1.7 11.3 0.00 0.00 0.00 90 1006.3
20260504200003 66 189 2.6 11.3 0.00 0.00 0.00 90 1006.4
20260504195501 66 219 2.6 10.4 0.00 0.00 0.00 90 1005.8
20260504195001 65 198 0.9 8.7 0.00 0.00 0.00 90 1005.5
20260504194502 65 5 0.0 0.0 0.00 0.00 0.00 93 1006.2
20260504194001 65 288 0.0 0.0 0.00 0.00 0.00 93 1006.9
20260504193501 66 288 0.0 0.0 0.00 0.00 0.00 93 1006.9
20260504193001 66 334 0.0 1.7 0.00 0.00 0.00 92 1006.8
20260504192003 67 334 0.0 0.0 0.00 0.00 0.00 89 1007.1
20260504191501 68 336 0.0 0.0 0.00 0.00 0.00 87 1007.2
20260504191000 68 335 0.0 0.0 0.00 0.00 0.00 84 1007.6
20260504190501 69 334 0.0 0.0 0.00 0.00 0.00 82 1007.6
20260504190004 70 335 0.0 1.7 0.00 0.00 0.00 75 1007.8
20260504185501 70 335 0.0 5.2 0.00 0.00 0.00 72 1007.5
20260504184501 71 338 0.0 4.3 0.00 0.00 0.00 70 1007.6
20260504184001 72 115 0.0 0.0 0.00 0.00 0.00 72 1007.7
20260504183002 73 114 0.0 1.7 0.00 0.00 0.00 67 1007.6
20260504182501 73 115 0.0 1.7 0.00 0.00 0.00 63 1007.6
20260504182001 74 195 0.0 3.5 0.00 0.00 0.00 65 1007.9
20260504181501 75 195 0.9 3.5 0.00 0.00 0.00 63 1007.7
20260504181000 75 182 0.9 7.8 0.00 0.00 0.00 62 1007.6
20260504180501 76 191 0.9 7.8 0.00 0.00 0.00 61 1007.6
20260504180005 76 157 0.9 4.3 0.00 0.00 0.00 67 1007.3
20260504175502 75 43 0.0 4.3 0.00 0.00 0.00 66 1007.3
20260504175001 73 233 0.0 2.6 0.00 0.00 0.00 68 1007.6
20260504174501 72 248 0.0 2.6 0.00 0.00 0.00 74 1007.7
20260504174001 71 250 0.0 2.6 0.00 0.00 0.00 72 1007.7
20260504173002 69 95 0.0 1.7 0.00 0.00 0.00 76 1007.8
20260504172501 68 167 0.0 4.3 0.00 0.00 0.00 78 1007.9
20260504172001 67 167 0.0 4.3 0.00 0.00 0.00 79 1007.9
20260504171501 66 180 0.0 0.0 0.00 0.00 0.00 83 1008.0
20260504171000 65 180 0.0 0.0 0.00 0.00 0.00 83 1008.3
20260504170502 65 180 0.0 0.0 0.00 0.00 0.00 83 1008.6
20260504151000 71 92 0.0 0.0 0.00 0.00 0.00 65 1010.3
20260504150500 71 91 0.0 2.6 0.00 0.00 0.00 65 1010.4
20260504140501 68 168 0.0 3.5 0.00 0.00 0.00 72 1009.9
20260504130501 59 200 0.0 2.6 0.00 0.00 0.00 90 1010.7
20260504100459 54 209 0.0 0.0 0.00 0.00 0.00 92 1010.7
20260504081959 57 209 0.0 0.0 0.00 0.00 0.00 82 1010.6
20260504081500 58 209 0.0 0.0 0.00 0.00 0.00 81 1010.6
20260504081000 58 209 0.0 0.0 0.00 0.00 0.00 80 1010.6
20260504080500 59 209 0.0 0.0 0.00 0.00 0.00 80 1010.7
20260504050501 66 203 2.6 8.7 0.00 0.00 0.00 64 1010.4
20260504045501 66 223 1.7 6.1 0.00 0.00 0.00 64 1010.5
20260504044502 66 175 1.7 8.7 0.00 0.00 0.00 63 1010.9
20260504044001 66 184 2.6 8.7 0.00 0.00 0.00 63 1011.0
20260504043502 67 167 1.7 7.8 0.00 0.00 0.00 63 1011.2
20260504043002 67 202 1.7 7.8 0.00 0.00 0.00 63 1011.4
20260504042501 67 207 1.7 10.4 0.00 0.00 0.00 62 1011.4
20260504042001 67 200 1.7 10.4 0.00 0.00 0.00 62 1011.5
20260504041503 67 187 2.6 8.7 0.00 0.00 0.00 62 1011.5
20260504040502 67 211 2.6 9.6 0.00 0.00 0.00 61 1011.6
20260504040004 67 192 1.7 10.4 0.00 0.00 0.00 61 1011.6
20260504035502 68 151 1.7 7.0 0.00 0.00 0.00 61 1011.7
20260504035002 68 191 2.6 10.4 0.00 0.00 0.00 60 1011.6
20260504034502 68 132 2.6 10.4 0.00 0.00 0.00 60 1011.9
20260504034001 68 184 2.6 7.0 0.00 0.00 0.00 60 1011.9
20260504033002 67 160 1.7 5.2 0.00 0.00 0.00 60 1012.1
20260504032502 67 184 2.6 8.7 0.00 0.00 0.00 60 1012.0
20260504031502 67 209 1.7 6.1 0.00 0.00 0.00 60 1011.9
20260504031001 67 202 1.7 6.1 0.00 0.00 0.00 60 1012.0
20260504030501 67 183 1.7 5.2 0.00 0.00 0.00 60 1011.9
20260504025002 68 211 0.9 5.2 0.00 0.00 0.00 59 1011.7
20260504024502 68 226 0.9 6.1 0.00 0.00 0.00 59 1011.9
20260504024002 68 189 0.9 4.3 0.00 0.00 0.00 58 1011.9
20260504023501 68 164 0.9 5.2 0.00 0.00 0.00 58 1011.8
20260504022501 68 161 0.0 5.2 0.00 0.00 0.00 58 1011.8
20260504022001 68 160 0.9 5.2 0.00 0.00 0.00 58 1011.8
20260504021502 68 203 0.9 5.2 0.00 0.00 0.00 59 1011.7
20260504020502 67 200 0.0 3.5 0.00 0.00 0.00 58 1011.6
20260504020003 67 200 0.0 3.5 0.00 0.00 0.00 58 1011.6
20260504015001 67 200 0.9 4.3 0.00 0.00 0.00 59 1011.4
20260504014503 67 200 0.0 4.3 0.00 0.00 0.00 59 1011.5
20260504014002 68 205 0.0 4.3 0.00 0.00 0.00 59 1011.4
20260504013501 68 200 0.0 0.0 0.00 0.00 0.00 58 1011.4
20260504012501 69 201 0.0 0.0 0.00 0.00 0.00 57 1011.4
20260504012001 70 200 0.0 0.0 0.00 0.00 0.00 57 1011.4
20260504011502 70 200 0.0 0.0 0.00 0.00 0.00 55 1011.4
20260504011001 71 201 0.0 0.0 0.00 0.00 0.00 54 1011.4
20260504010004 72 201 0.0 4.3 0.00 0.00 0.00 52 1011.3
20260504005503 72 200 0.0 3.5 0.00 0.00 0.00 51 1011.4
20260504005001 73 200 0.9 3.5 0.00 0.00 0.00 51 1011.3
20260504004502 73 200 0.9 2.6 0.00 0.00 0.00 50 1011.2
20260504004001 73 201 0.9 2.6 0.00 0.00 0.00 49 1011.3
20260504003502 73 200 0.9 4.3 0.00 0.00 0.00 49 1011.3
20260504002502 74 204 0.9 5.2 0.00 0.00 0.00 49 1011.2
20260504001502 75 200 0.9 6.1 0.00 0.00 0.00 48 1011.3
20260504001001 75 202 1.7 6.1 0.00 0.00 0.00 47 1011.3
20260504000501 75 180 2.6 7.0 0.00 0.00 0.00 47 1011.3
20260504000003 75 179 1.7 7.0 0.00 0.00 0.00 47 1011.3
20260503235502 75 183 1.7 7.0 0.00 0.00 0.00 46 1011.4
20260503235001 75 173 1.7 7.0 0.00 0.00 0.00 47 1011.4
20260503234502 76 187 2.6 8.7 0.00 0.00 0.00 46 1011.5
20260503234001 76 161 2.6 8.7 0.00 0.00 0.00 46 1011.5
20260503233501 76 176 1.7 8.7 0.00 0.00 0.00 45 1011.5
20260503232001 76 142 2.6 15.6 0.00 0.00 0.00 44 1011.4
20260503231502 76 186 2.6 9.6 0.00 0.00 0.00 44 1011.5
20260503231002 76 200 3.5 9.6 0.00 0.00 0.00 44 1011.6
20260503230503 76 210 2.6 11.3 0.00 0.00 0.00 43 1011.6
20260503230004 76 193 3.5 12.2 0.00 0.00 0.00 43 1011.7
20260503225501 76 154 3.5 12.2 0.00 0.00 0.00 43 1011.7
20260503225001 77 211 2.6 8.7 0.00 0.00 0.00 42 1011.7
20260503224502 76 137 2.6 8.7 0.00 0.00 0.00 42 1011.8
20260503224001 76 82 1.7 8.7 0.00 0.00 0.00 42 1011.9
20260503223501 76 178 0.9 7.8 0.00 0.00 0.00 43 1011.8
20260503223002 76 227 1.7 7.8 0.00 0.00 0.00 43 1011.8
20260503222502 76 193 2.6 7.8 0.00 0.00 0.00 42 1011.9
20260503222001 76 171 2.6 11.3 0.00 0.00 0.00 42 1011.9
20260503221502 76 178 3.5 11.3 0.00 0.00 0.00 42 1011.9
20260503221001 76 178 3.5 11.3 0.00 0.00 0.00 41 1012.0
20260503220003 76 201 1.7 8.7 0.00 0.00 0.00 43 1012.0
20260503215502 76 139 3.5 13.9 0.00 0.00 0.00 43 1012.1
20260503215002 76 223 3.5 13.9 0.00 0.00 0.00 41 1012.0
20260503214502 76 134 2.6 13.0 0.00 0.00 0.00 42 1012.0
20260503214001 76 139 2.6 13.0 0.00 0.00 0.00 43 1012.1
20260503213501 76 176 2.6 8.7 0.00 0.00 0.00 43 1012.1
20260503213002 76 163 2.6 8.7 0.00 0.00 0.00 42 1012.1
20260503212501 76 146 3.5 13.0 0.00 0.00 0.00 43 1012.2
20260503212001 76 194 3.5 13.0 0.00 0.00 0.00 43 1012.4
20260503211501 76 261 3.5 10.4 0.00 0.00 0.00 43 1012.4
20260503211001 76 116 4.3 10.4 0.00 0.00 0.00 43 1012.5
20260503210501 76 195 4.3 13.9 0.00 0.00 0.00 42 1012.4
20260503210004 76 129 4.3 13.9 0.00 0.00 0.00 43 1012.6